ABS-2A (MONGOLSAT-1)

Last updated on Fri Dec 19 2025 00:02:51 GMT+0000 (Coordinated Universal Time)

1 41588U 16038A 25351.82884461 .00000000 00000+0 00000+0 0 9999 2 41588 0.0255 357.9442 0001153 203.3775 258.5097 1.00269363 34891
UTC large
Height (km)
Speed (km/s)
/
Latitude / Longitude
Inclination (degrees)
Orbital Period (minutes)
Azimuth
Elevation
Range (km)
Doppler Factor

Next 0 passes for location: London (51.5072 / 0.1276)

Sorry there are no passes over London.